パンスターズ彗星

C/2017 S3 ( PanSTARRS )

English version
Home page
Updated on February 13, 2018

---------------------------------------------------------------------

・ プロフィール

発見日 2017年9月23日
発見光度 21.5等
発見者 Pan-STARRS 1 telescope (Haleakala)

・ 写真集

・ 軌道要素

Epoch 2018 Aug. 30.0 TT = JDT 2458360.5
T 2018 Aug. 15.94010 TT                                 MPCW
q   0.2084493            (2000.0)            P               Q
z  -0.0004397      Peri.  255.88989     +0.21708877     -0.96396230
 +/-0.0000108      Node   171.04166     +0.20808185     +0.19961695
e   1.0000917      Incl.   99.03813     -0.95371611     -0.17586861
From 54 observations 2017 Aug. 17-2018 Jan. 15, mean residual 0".4.

・ 星図

・ 光度変化

        m1 = 10.0 + 5 logΔ + 10.0 log r

---------------------------------------------------------------------

軌道要素はM.P.E.C. 2018-B155に掲載されたものです。
星図はステラナビゲータ Ver.10 (アストロアーツ) で作成したものです。
光度グラフはComet for Windowsで作成したものです。

---------------------------------------------------------------------

Copyright(C) Seiichi Yoshida (comet@aerith.net). All rights reserved.